Location: Asheville, NC
(35.6000°N, 82.5500°W)
Time: 18:39:12
(UTC-04:00)

NUDT-PHONESAT - Pass Details

Date: 12 March 2018
Orbit: 492 x 511 km, 97.4° (Epoch: 19 June)

Event Time Altitude Azimuth Distance (km) Brightness Sun altitude
Rises 20:02:12 0° 205° (SSW) 2,552 ? -6.3°
Reaches altitude 10° 20:04:56 10° 228° (SW) 1,677 ? -6.9°
Maximum altitude 20:07:08 15° 266° (W) 1,378 ? -7.3°
Drops below altitude 10° 20:09:21 10° 304° (NW) 1,688 ? -7.8°
Sets 20:12:08 0° 327° (NNW) 2,579 ? -8.3°
